| time (UTC) | temp C | wind direction | speed KPH | gust KPH | rain 1hr cm | rain 24hr cm | rain mn cm | humidity % | barometer mb |
| 20260505035517 | 19 | 0 | 1.6 | 3.2 | 0.00 | 0.03 | 0.03 | 67 | 1010.4 |
| 20260505035418 | 19 | 220 | 1.6 | 3.2 | 0.00 | 0.03 | 0.03 | 67 | 1010.3 |
| 20260505035318 | 19 | 251 | 0.0 | 1.6 | 0.00 | 0.03 | 0.03 | 67 | 1010.3 |
| 20260505035017 | 19 | 0 | 0.0 | 0.0 | 0.00 | 0.03 | 0.03 | 67 | 1010.3 |
| 20260505034917 | 19 | 0 | 0.0 | 0.0 | 0.00 | 0.03 | 0.03 | 67 | 1010.3 |
| 20260505034817 | 19 | 0 | 0.0 | 0.0 | 0.03 | 0.03 | 0.03 | 66 | 1010.3 |
| 20260505034517 | 20 | 253 | 3.2 | 6.4 | 0.03 | 0.03 | 0.03 | 66 | 1010.2 |
| 20260505034417 | 20 | 226 | 0.0 | 3.2 | 0.03 | 0.03 | 0.03 | 66 | 1010.2 |
| 20260505034317 | 20 | 0 | 0.0 | 1.6 | 0.03 | 0.03 | 0.03 | 66 | 1010.2 |
| 20260505034217 | 20 | 225 | 3.2 | 4.8 | 0.03 | 0.03 | 0.03 | 66 | 1010.2 |
| 20260505034118 | 20 | 213 | 1.6 | 4.8 | 0.03 | 0.03 | 0.03 | 65 | 1010.1 |
| 20260505034017 | 20 | 218 | 3.2 | 4.8 | 0.03 | 0.03 | 0.03 | 65 | 1010.1 |
| 20260505033917 | 20 | 268 | 4.8 | 4.8 | 0.03 | 0.03 | 0.03 | 65 | 1010.1 |
| 20260505033618 | 20 | 210 | 4.8 | 4.8 | 0.03 | 0.03 | 0.03 | 65 | 1010.1 |
| 20260505033517 | 20 | 0 | 3.2 | 6.4 | 0.03 | 0.03 | 0.03 | 64 | 1010.1 |
| 20260505033418 | 20 | 262 | 0.0 | 3.2 | 0.03 | 0.03 | 0.03 | 64 | 1010.1 |
| 20260505033317 | 20 | 0 | 0.0 | 3.2 | 0.03 | 0.03 | 0.03 | 64 | 1010.1 |
| 20260505033218 | 20 | 277 | 1.6 | 4.8 | 0.03 | 0.03 | 0.03 | 64 | 1010.0 |
| 20260505033118 | 20 | 218 | 1.6 | 4.8 | 0.03 | 0.03 | 0.03 | 64 | 1010.0 |
| 20260505033018 | 20 | 210 | 1.6 | 3.2 | 0.03 | 0.03 | 0.03 | 64 | 1010.0 |
| 20260505032918 | 20 | 252 | 1.6 | 4.8 | 0.03 | 0.03 | 0.03 | 63 | 1009.9 |
| 20260505032818 | 20 | 238 | 4.8 | 8.0 | 0.03 | 0.03 | 0.03 | 63 | 1009.9 |
| 20260505032718 | 20 | 204 | 4.8 | 8.0 | 0.03 | 0.03 | 0.03 | 63 | 1009.9 |
| 20260505032617 | 20 | 0 | 1.6 | 4.8 | 0.03 | 0.03 | 0.03 | 63 | 1009.9 |
| 20260505032518 | 20 | 233 | 3.2 | 6.4 | 0.03 | 0.03 | 0.03 | 63 | 1009.8 |
| 20260505032318 | 21 | 204 | 3.2 | 6.4 | 0.03 | 0.03 | 0.03 | 63 | 1009.8 |
| 20260505032218 | 21 | 212 | 8.0 | 11.3 | 0.03 | 0.03 | 0.03 | 62 | 1009.8 |
| 20260505031918 | 21 | 0 | 0.0 | 0.0 | 0.03 | 0.03 | 0.03 | 62 | 1009.7 |
| 20260505031618 | 21 | 230 | 1.6 | 3.2 | 0.03 | 0.03 | 0.03 | 62 | 1009.7 |
| 20260505031218 | 21 | 318 | 1.6 | 4.8 | 0.03 | 0.03 | 0.03 | 61 | 1009.7 |
| 20260505031118 | 21 | 235 | 1.6 | 4.8 | 0.03 | 0.03 | 0.03 | 61 | 1009.7 |
| 20260505030818 | 21 | 257 | 3.2 | 4.8 | 0.03 | 0.03 | 0.03 | 60 | 1009.6 |
| 20260505030718 | 21 | 242 | 3.2 | 4.8 | 0.03 | 0.03 | 0.03 | 60 | 1009.6 |
| 20260505030618 | 21 | 237 | 1.6 | 4.8 | 0.03 | 0.03 | 0.03 | 60 | 1009.6 |
| 20260505030518 | 21 | 244 | 1.6 | 4.8 | 0.03 | 0.03 | 0.03 | 60 | 1009.6 |
| 20260505030218 | 22 | 262 | 3.2 | 6.4 | 0.03 | 0.03 | 0.03 | 60 | 1009.6 |
| 20260505030118 | 22 | 212 | 3.2 | 4.8 | 0.03 | 0.03 | 0.03 | 60 | 1009.5 |
| 20260505030018 | 22 | 236 | 4.8 | 6.4 | 0.03 | 0.03 | 0.03 | 60 | 1009.5 |
| 20260505025918 | 22 | 251 | 1.6 | 4.8 | 0.03 | 0.03 | 0.03 | 60 | 1009.5 |
| 20260505025818 | 22 | 233 | 1.6 | 4.8 | 0.03 | 0.03 | 0.03 | 60 | 1009.5 |
| 20260505025519 | 22 | 212 | 4.8 | 9.7 | 0.03 | 0.03 | 0.03 | 59 | 1009.5 |
| 20260505025419 | 22 | 209 | 6.4 | 8.0 | 0.03 | 0.03 | 0.03 | 59 | 1009.4 |
| 20260505025318 | 22 | 229 | 4.8 | 8.0 | 0.03 | 0.03 | 0.03 | 59 | 1009.4 |
| 20260505025218 | 22 | 208 | 4.8 | 6.4 | 0.03 | 0.03 | 0.03 | 59 | 1009.4 |
| 20260505025118 | 22 | 235 | 3.2 | 8.0 | 0.03 | 0.03 | 0.03 | 59 | 1009.4 |
| 20260505025018 | 22 | 211 | 1.6 | 4.8 | 0.03 | 0.03 | 0.03 | 59 | 1009.4 |
| 20260505024919 | 22 | 236 | 1.6 | 4.8 | 0.00 | 0.00 | 0.03 | 59 | 1009.4 |
| 20260505024718 | 22 | 0 | 0.0 | 4.8 | 0.00 | 0.00 | 0.00 | 58 | 1009.4 |
| 20260505024419 | 23 | 264 | 3.2 | 4.8 | 0.00 | 0.00 | 0.00 | 58 | 1009.4 |
| 20260505024318 | 23 | 264 | 3.2 | 8.0 | 0.00 | 0.00 | 0.00 | 57 | 1009.4 |
| 20260505024219 | 23 | 266 | 1.6 | 4.8 | 0.00 | 0.00 | 0.00 | 57 | 1009.4 |
| 20260505024119 | 23 | 312 | 3.2 | 4.8 | 0.00 | 0.00 | 0.00 | 57 | 1009.4 |
| 20260505023919 | 23 | 258 | 1.6 | 3.2 | 0.00 | 0.00 | 0.00 | 56 | 1009.3 |
| 20260505023818 | 23 | 0 | 0.0 | 1.6 | 0.00 | 0.00 | 0.00 | 56 | 1009.3 |
| 20260505023719 | 23 | 273 | 1.6 | 4.8 | 0.00 | 0.00 | 0.00 | 56 | 1009.3 |
| 20260505023618 | 23 | 0 | 0.0 | 3.2 | 0.00 | 0.00 | 0.00 | 56 | 1009.3 |
| 20260505023518 | 23 | 245 | 3.2 | 8.0 | 0.00 | 0.00 | 0.00 | 55 | 1009.3 |
| 20260505023419 | 23 | 227 | 3.2 | 8.0 | 0.00 | 0.00 | 0.00 | 55 | 1009.3 |
| 20260505023318 | 23 | 230 | 4.8 | 9.7 | 0.00 | 0.00 | 0.00 | 55 | 1009.3 |
| 20260505023219 | 23 | 195 | 4.8 | 9.7 | 0.00 | 0.00 | 0.00 | 55 | 1009.2 |
| 20260505023119 | 23 | 218 | 3.2 | 4.8 | 0.00 | 0.00 | 0.00 | 55 | 1009.3 |
| 20260505023018 | 23 | 236 | 3.2 | 6.4 | 0.00 | 0.00 | 0.00 | 55 | 1009.3 |
| 20260505022919 | 23 | 245 | 4.8 | 8.0 | 0.00 | 0.00 | 0.00 | 54 | 1009.3 |
| 20260505022819 | 23 | 222 | 1.6 | 6.4 | 0.00 | 0.00 | 0.00 | 55 | 1009.3 |
| 20260505022718 | 23 | 10 | 1.6 | 4.8 | 0.00 | 0.00 | 0.00 | 54 | 1009.3 |
| 20260505022619 | 23 | 229 | 3.2 | 8.0 | 0.00 | 0.00 | 0.00 | 54 | 1009.2 |
| 20260505022518 | 23 | 253 | 4.8 | 8.0 | 0.00 | 0.00 | 0.00 | 54 | 1009.2 |
| 20260505022419 | 23 | 225 | 4.8 | 8.0 | 0.00 | 0.00 | 0.00 | 54 | 1009.3 |
| 20260505022318 | 23 | 252 | 1.6 | 4.8 | 0.00 | 0.00 | 0.00 | 53 | 1009.3 |
| 20260505022218 | 23 | 259 | 1.6 | 4.8 | 0.00 | 0.00 | 0.00 | 53 | 1009.3 |
| 20260505022119 | 23 | 231 | 0.0 | 1.6 | 0.00 | 0.00 | 0.00 | 53 | 1009.3 |
| 20260505022019 | 23 | 244 | 1.6 | 3.2 | 0.00 | 0.00 | 0.00 | 53 | 1009.3 |
| 20260505021619 | 24 | 225 | 4.8 | 8.0 | 0.00 | 0.00 | 0.00 | 53 | 1009.3 |
| 20260505021519 | 24 | 222 | 1.6 | 3.2 | 0.00 | 0.00 | 0.00 | 53 | 1009.3 |
| 20260505021418 | 24 | 278 | 1.6 | 4.8 | 0.00 | 0.00 | 0.00 | 53 | 1009.3 |
| 20260505021319 | 24 | 8 | 1.6 | 3.2 | 0.00 | 0.00 | 0.00 | 53 | 1009.3 |
| 20260505021219 | 24 | 349 | 1.6 | 4.8 | 0.00 | 0.00 | 0.00 | 52 | 1009.3 |
| 20260505021119 | 24 | 265 | 1.6 | 3.2 | 0.00 | 0.00 | 0.00 | 52 | 1009.3 |
| 20260505020819 | 24 | 248 | 1.6 | 4.8 | 0.00 | 0.00 | 0.00 | 52 | 1009.3 |
| 20260505020719 | 24 | 281 | 1.6 | 3.2 | 0.00 | 0.00 | 0.00 | 51 | 1009.3 |
| 20260505020619 | 25 | 246 | 4.8 | 8.0 | 0.00 | 0.00 | 0.00 | 51 | 1009.3 |
| 20260505020419 | 25 | 206 | 1.6 | 4.8 | 0.00 | 0.00 | 0.00 | 50 | 1009.3 |
| 20260505020319 | 25 | 0 | 1.6 | 3.2 | 0.00 | 0.00 | 0.00 | 50 | 1009.3 |
| 20260505020219 | 25 | 0 | 0.0 | 1.6 | 0.00 | 0.00 | 0.00 | 50 | 1009.3 |
| 20260505020119 | 25 | 237 | 0.0 | 3.2 | 0.00 | 0.00 | 0.00 | 49 | 1009.3 |
| 20260505020019 | 25 | 0 | 0.0 | 0.0 | 0.00 | 0.00 | 0.00 | 49 | 1009.3 |
| 20260505015919 | 25 | 0 | 0.0 | 3.2 | 0.00 | 0.00 | 0.00 | 49 | 1009.3 |
| 20260505015819 | 25 | 219 | 3.2 | 6.4 | 0.00 | 0.00 | 0.00 | 49 | 1009.3 |
| 20260505015720 | 25 | 233 | 4.8 | 9.7 | 0.00 | 0.00 | 0.00 | 49 | 1009.3 |
| 20260505015620 | 25 | 233 | 4.8 | 6.4 | 0.00 | 0.00 | 0.00 | 48 | 1009.3 |
| 20260505015519 | 25 | 246 | 6.4 | 12.9 | 0.00 | 0.00 | 0.00 | 48 | 1009.3 |
| 20260505015419 | 25 | 216 | 1.6 | 6.4 | 0.00 | 0.00 | 0.00 | 47 | 1009.3 |
| 20260505014919 | 25 | 223 | 3.2 | 8.0 | 0.00 | 0.00 | 0.00 | 47 | 1009.2 |
| 20260505014820 | 25 | 281 | 3.2 | 6.4 | 0.00 | 0.00 | 0.00 | 47 | 1009.2 |
| 20260505014720 | 25 | 179 | 3.2 | 4.8 | 0.00 | 0.00 | 0.00 | 46 | 1009.2 |
| 20260505014619 | 25 | 0 | 3.2 | 6.4 | 0.00 | 0.00 | 0.00 | 46 | 1009.2 |
| 20260505014319 | 25 | 254 | 4.8 | 9.7 | 0.00 | 0.00 | 0.00 | 46 | 1009.2 |
| 20260505014219 | 25 | 0 | 0.0 | 3.2 | 0.00 | 0.00 | 0.00 | 46 | 1009.2 |
| 20260505014120 | 25 | 236 | 3.2 | 4.8 | 0.00 | 0.00 | 0.00 | 46 | 1009.2 |
| 20260505013719 | 25 | 213 | 3.2 | 4.8 | 0.00 | 0.00 | 0.00 | 46 | 1009.2 |
| 20260505013619 | 25 | 0 | 1.6 | 4.8 | 0.00 | 0.00 | 0.00 | 46 | 1009.2 |
| 20260505013519 | 25 | 269 | 1.6 | 4.8 | 0.00 | 0.00 | 0.00 | 46 | 1009.2 |
| 20260505013420 | 26 | 340 | 3.2 | 6.4 | 0.00 | 0.00 | 0.00 | 46 | 1009.3 |
| 20260505013320 | 26 | 232 | 4.8 | 6.4 | 0.00 | 0.00 | 0.00 | 46 | 1009.2 |
| 20260505013220 | 26 | 210 | 4.8 | 6.4 | 0.00 | 0.00 | 0.00 | 45 | 1009.3 |
| 20260505013020 | 26 | 215 | 4.8 | 6.4 | 0.00 | 0.00 | 0.00 | 45 | 1009.3 |
| 20260505012920 | 26 | 222 | 3.2 | 4.8 | 0.00 | 0.00 | 0.00 | 45 | 1009.2 |
| 20260505012620 | 26 | 280 | 1.6 | 4.8 | 0.00 | 0.00 | 0.00 | 44 | 1009.2 |
| 20260505012320 | 26 | 285 | 0.0 | 1.6 | 0.00 | 0.00 | 0.00 | 43 | 1009.2 |
| 20260505012220 | 26 | 0 | 0.0 | 0.0 | 0.00 | 0.00 | 0.00 | 43 | 1009.2 |
| 20260505012120 | 26 | 0 | 0.0 | 1.6 | 0.00 | 0.00 | 0.00 | 43 | 1009.2 |
| 20260505011820 | 26 | 0 | 1.6 | 3.2 | 0.00 | 0.00 | 0.00 | 43 | 1009.2 |
| 20260505011720 | 26 | 263 | 3.2 | 4.8 | 0.00 | 0.00 | 0.00 | 43 | 1009.2 |
| 20260505011620 | 26 | 215 | 4.8 | 8.0 | 0.00 | 0.00 | 0.00 | 43 | 1009.2 |
| 20260505011520 | 26 | 203 | 4.8 | 8.0 | 0.00 | 0.00 | 0.00 | 42 | 1009.2 |
| 20260505011420 | 26 | 211 | 4.8 | 8.0 | 0.00 | 0.00 | 0.00 | 41 | 1009.2 |
| 20260505011320 | 26 | 228 | 0.0 | 1.6 | 0.00 | 0.00 | 0.00 | 41 | 1009.2 |
| 20260505011220 | 26 | 0 | 0.0 | 1.6 | 0.00 | 0.00 | 0.00 | 41 | 1009.3 |
| 20260505011120 | 26 | 0 | 0.0 | 3.2 | 0.00 | 0.00 | 0.00 | 41 | 1009.3 |
| 20260505011019 | 26 | 288 | 3.2 | 6.4 | 0.00 | 0.00 | 0.00 | 40 | 1009.3 |
| 20260505010920 | 26 | 212 | 1.6 | 4.8 | 0.00 | 0.00 | 0.00 | 40 | 1009.3 |
| 20260505010820 | 26 | 227 | 3.2 | 8.0 | 0.00 | 0.00 | 0.00 | 39 | 1009.3 |
| 20260505010420 | 26 | 302 | 1.6 | 3.2 | 0.00 | 0.00 | 0.00 | 38 | 1009.3 |
| 20260505010320 | 26 | 339 | 0.0 | 1.6 | 0.00 | 0.00 | 0.00 | 38 | 1009.3 |
| 20260505010220 | 26 | 0 | 0.0 | 4.8 | 0.00 | 0.00 | 0.00 | 38 | 1009.3 |
| 20260505010120 | 26 | 226 | 1.6 | 4.8 | 0.00 | 0.00 | 0.00 | 38 | 1009.3 |
| 20260505010020 | 26 | 291 | 3.2 | 6.4 | 0.00 | 0.00 | 0.00 | 38 | 1009.3 |
| 20260505005920 | 26 | 0 | 1.6 | 4.8 | 0.00 | 0.00 | 0.00 | 37 | 1009.3 |
| 20260505005820 | 26 | 211 | 1.6 | 4.8 | 0.00 | 0.00 | 0.00 | 37 | 1009.3 |
| 20260505005720 | 26 | 350 | 1.6 | 6.4 | 0.00 | 0.00 | 0.00 | 38 | 1009.4 |
| 20260505005620 | 26 | 250 | 0.0 | 1.6 | 0.00 | 0.00 | 0.00 | 38 | 1009.3 |
| 20260505005520 | 26 | 305 | 1.6 | 3.2 | 0.00 | 0.00 | 0.00 | 38 | 1009.3 |
| 20260505005420 | 26 | 328 | 1.6 | 4.8 | 0.00 | 0.00 | 0.00 | 37 | 1009.4 |
| 20260505005320 | 26 | 212 | 3.2 | 8.0 | 0.00 | 0.00 | 0.00 | 37 | 1009.3 |
| 20260505005220 | 26 | 218 | 6.4 | 9.7 | 0.00 | 0.00 | 0.00 | 37 | 1009.3 |
| 20260505005120 | 26 | 216 | 1.6 | 6.4 | 0.00 | 0.00 | 0.00 | 37 | 1009.3 |
| 20260505005020 | 26 | 0 | 0.0 | 3.2 | 0.00 | 0.00 | 0.00 | 36 | 1009.3 |
| 20260505004920 | 26 | 233 | 3.2 | 6.4 | 0.00 | 0.00 | 0.00 | 36 | 1009.3 |
| 20260505004821 | 26 | 246 | 4.8 | 8.0 | 0.00 | 0.00 | 0.00 | 36 | 1009.3 |
| 20260505004721 | 26 | 207 | 4.8 | 8.0 | 0.00 | 0.00 | 0.00 | 36 | 1009.3 |
| 20260505004621 | 26 | 241 | 1.6 | 4.8 | 0.00 | 0.00 | 0.00 | 36 | 1009.3 |
| 20260505004520 | 26 | 316 | 1.6 | 4.8 | 0.00 | 0.00 | 0.00 | 36 | 1009.3 |
| 20260505004420 | 26 | 330 | 1.6 | 4.8 | 0.00 | 0.00 | 0.00 | 36 | 1009.3 |
| 20260505004320 | 26 | 352 | 3.2 | 8.0 | 0.00 | 0.00 | 0.00 | 36 | 1009.3 |
| 20260505004220 | 26 | 338 | 1.6 | 4.8 | 0.00 | 0.00 | 0.00 | 36 | 1009.3 |
| 20260505004120 | 26 | 301 | 1.6 | 4.8 | 0.00 | 0.00 | 0.00 | 36 | 1009.3 |
| 20260505004020 | 26 | 281 | 3.2 | 4.8 | 0.00 | 0.00 | 0.00 | 35 | 1009.3 |
| 20260505003920 | 26 | 347 | 1.6 | 6.4 | 0.00 | 0.00 | 0.00 | 36 | 1009.3 |
| 20260505003820 | 26 | 6 | 0.0 | 4.8 | 0.00 | 0.00 | 0.00 | 36 | 1009.3 |
| 20260505003521 | 26 | 314 | 0.0 | 3.2 | 0.00 | 0.00 | 0.00 | 36 | 1009.3 |
| 20260505003420 | 26 | 0 | 1.6 | 4.8 | 0.00 | 0.00 | 0.00 | 36 | 1009.3 |
| 20260505003321 | 26 | 316 | 3.2 | 9.7 | 0.00 | 0.00 | 0.00 | 37 | 1009.4 |
| 20260505003220 | 26 | 310 | 1.6 | 4.8 | 0.00 | 0.00 | 0.00 | 36 | 1009.3 |
| 20260505003120 | 26 | 0 | 1.6 | 3.2 | 0.00 | 0.00 | 0.00 | 36 | 1009.3 |
| 20260505003021 | 26 | 226 | 1.6 | 4.8 | 0.00 | 0.00 | 0.00 | 36 | 1009.3 |
| 20260505002721 | 26 | 352 | 3.2 | 8.0 | 0.00 | 0.00 | 0.00 | 37 | 1009.3 |
| 20260505002621 | 26 | 218 | 1.6 | 4.8 | 0.00 | 0.00 | 0.00 | 37 | 1009.2 |
| 20260505002521 | 26 | 356 | 3.2 | 4.8 | 0.00 | 0.00 | 0.00 | 37 | 1009.3 |
| 20260505002421 | 26 | 191 | 3.2 | 6.4 | 0.00 | 0.00 | 0.00 | 37 | 1009.3 |
| 20260505002320 | 26 | 210 | 3.2 | 6.4 | 0.00 | 0.00 | 0.00 | 37 | 1009.3 |
| 20260505002221 | 26 | 250 | 3.2 | 6.4 | 0.00 | 0.00 | 0.00 | 37 | 1009.2 |
| 20260505002120 | 26 | 199 | 1.6 | 4.8 | 0.00 | 0.00 | 0.00 | 37 | 1009.2 |
| 20260505001821 | 26 | 202 | 6.4 | 9.7 | 0.00 | 0.00 | 0.00 | 36 | 1009.2 |
| 20260505001521 | 26 | 206 | 3.2 | 6.4 | 0.00 | 0.00 | 0.00 | 36 | 1009.2 |
| 20260505001421 | 26 | 212 | 1.6 | 6.4 | 0.00 | 0.00 | 0.00 | 35 | 1009.2 |
| 20260505001321 | 26 | 313 | 1.6 | 6.4 | 0.00 | 0.00 | 0.00 | 35 | 1009.3 |
| 20260505001221 | 26 | 312 | 1.6 | 4.8 | 0.00 | 0.00 | 0.00 | 35 | 1009.2 |
| 20260505001121 | 26 | 322 | 1.6 | 4.8 | 0.00 | 0.00 | 0.00 | 35 | 1009.3 |
| 20260505000921 | 26 | 242 | 1.6 | 4.8 | 0.00 | 0.00 | 0.00 | 35 | 1009.2 |
| 20260505000821 | 26 | 9 | 3.2 | 6.4 | 0.00 | 0.00 | 0.00 | 35 | 1009.3 |
| 20260505000721 | 26 | 58 | 1.6 | 3.2 | 0.00 | 0.00 | 0.00 | 35 | 1009.3 |
| 20260505000621 | 26 | 0 | 1.6 | 3.2 | 0.00 | 0.00 | 0.00 | 35 | 1009.2 |
| 20260505000521 | 26 | 340 | 3.2 | 6.4 | 0.00 | 0.00 | 0.00 | 35 | 1009.2 |
| 20260505000421 | 26 | 253 | 4.8 | 8.0 | 0.00 | 0.00 | 0.00 | 35 | 1009.2 |
| 20260505000321 | 26 | 322 | 3.2 | 8.0 | 0.00 | 0.00 | 0.00 | 35 | 1009.3 |
| 20260505000222 | 26 | 227 | 4.8 | 9.7 | 0.00 | 0.00 | 0.00 | 35 | 1009.3 |
| 20260505000121 | 26 | 236 | 6.4 | 9.7 | 0.00 | 0.00 | 0.00 | 35 | 1009.3 |
| 20260505000021 | 26 | 0 | 0.0 | 3.2 | 0.00 | 0.00 | 0.00 | 36 | 1009.3 |
| 20260504235921 | 26 | 203 | 4.8 | 6.4 | 0.00 | 0.00 | 0.00 | 35 | 1009.3 |
| 20260504235821 | 26 | 218 | 0.0 | 4.8 | 0.00 | 0.00 | 0.00 | 35 | 1009.3 |
| 20260504235721 | 26 | 352 | 3.2 | 6.4 | 0.00 | 0.00 | 0.00 | 36 | 1009.4 |
| 20260504235621 | 26 | 236 | 1.6 | 6.4 | 0.00 | 0.00 | 0.00 | 36 | 1009.4 |
| 20260504235521 | 26 | 240 | 1.6 | 4.8 | 0.00 | 0.00 | 0.00 | 36 | 1009.4 |
| 20260504235421 | 26 | 251 | 4.8 | 9.7 | 0.00 | 0.00 | 0.00 | 36 | 1009.4 |
| 20260504235321 | 26 | 219 | 6.4 | 9.7 | 0.00 | 0.00 | 0.00 | 35 | 1009.3 |
| 20260504235221 | 26 | 184 | 1.6 | 6.4 | 0.00 | 0.00 | 0.00 | 36 | 1009.3 |
| 20260504234922 | 26 | 211 | 6.4 | 9.7 | 0.00 | 0.00 | 0.00 | 35 | 1009.3 |
| 20260504234822 | 26 | 217 | 4.8 | 8.0 | 0.00 | 0.00 | 0.00 | 35 | 1009.3 |
| 20260504234721 | 26 | 199 | 4.8 | 6.4 | 0.00 | 0.00 | 0.00 | 35 | 1009.3 |
| 20260504234622 | 26 | 216 | 3.2 | 6.4 | 0.00 | 0.00 | 0.00 | 35 | 1009.3 |
| 20260504234521 | 26 | 200 | 4.8 | 11.3 | 0.00 | 0.00 | 0.00 | 35 | 1009.3 |
| 20260504234221 | 26 | 215 | 1.6 | 4.8 | 0.00 | 0.00 | 0.00 | 36 | 1009.4 |
| 20260504234122 | 26 | 298 | 1.6 | 4.8 | 0.00 | 0.00 | 0.00 | 37 | 1009.4 |
| 20260504234021 | 26 | 337 | 3.2 | 6.4 | 0.00 | 0.00 | 0.00 | 37 | 1009.4 |
| 20260504233922 | 26 | 318 | 1.6 | 4.8 | 0.00 | 0.00 | 0.00 | 36 | 1009.4 |
| 20260504233621 | 26 | 0 | 1.6 | 6.4 | 0.00 | 0.00 | 0.00 | 36 | 1009.4 |
| 20260504233522 | 26 | 273 | 3.2 | 6.4 | 0.00 | 0.00 | 0.00 | 37 | 1009.4 |
| 20260504233422 | 26 | 225 | 0.0 | 4.8 | 0.00 | 0.00 | 0.00 | 37 | 1009.4 |
| 20260504233322 | 26 | 212 | 1.6 | 4.8 | 0.00 | 0.00 | 0.00 | 36 | 1009.4 |
| 20260504233222 | 26 | 203 | 3.2 | 9.7 | 0.00 | 0.00 | 0.00 | 36 | 1009.3 |
| 20260504233122 | 26 | 0 | 0.0 | 3.2 | 0.00 | 0.00 | 0.00 | 37 | 1009.4 |
| 20260504233021 | 26 | 305 | 1.6 | 4.8 | 0.00 | 0.00 | 0.00 | 36 | 1009.4 |
| 20260504232922 | 26 | 310 | 3.2 | 6.4 | 0.00 | 0.00 | 0.00 | 37 | 1009.4 |
| 20260504232824 | 26 | 263 | 1.6 | 3.2 | 0.00 | 0.00 | 0.00 | 36 | 1009.3 |
| 20260504232721 | 26 | 214 | 1.6 | 4.8 | 0.00 | 0.00 | 0.00 | 35 | 1009.3 |
| 20260504232621 | 26 | 252 | 4.8 | 8.0 | 0.00 | 0.00 | 0.00 | 35 | 1009.3 |
| 20260504232522 | 26 | 338 | 3.2 | 6.4 | 0.00 | 0.00 | 0.00 | 35 | 1009.3 |
| 20260504232221 | 26 | 0 | 3.2 | 4.8 | 0.00 | 0.00 | 0.00 | 36 | 1009.3 |
| 20260504232122 | 26 | 311 | 1.6 | 4.8 | 0.00 | 0.00 | 0.00 | 36 | 1009.4 |
| 20260504231922 | 26 | 326 | 3.2 | 4.8 | 0.00 | 0.00 | 0.00 | 36 | 1009.4 |
| 20260504231822 | 26 | 254 | 1.6 | 4.8 | 0.00 | 0.00 | 0.00 | 36 | 1009.3 |
| 20260504231722 | 26 | 326 | 1.6 | 3.2 | 0.00 | 0.00 | 0.00 | 36 | 1009.3 |
| 20260504231622 | 26 | 271 | 3.2 | 6.4 | 0.00 | 0.00 | 0.00 | 36 | 1009.4 |
| 20260504231522 | 26 | 308 | 3.2 | 4.8 | 0.00 | 0.00 | 0.00 | 36 | 1009.4 |
| 20260504231421 | 26 | 250 | 6.4 | 11.3 | 0.00 | 0.00 | 0.00 | 36 | 1009.3 |
| 20260504231322 | 26 | 229 | 4.8 | 8.0 | 0.00 | 0.00 | 0.00 | 36 | 1009.3 |
| 20260504231222 | 26 | 216 | 6.4 | 9.7 | 0.00 | 0.00 | 0.00 | 36 | 1009.3 |
| 20260504231022 | 26 | 218 | 3.2 | 8.0 | 0.00 | 0.00 | 0.00 | 36 | 1009.4 |
| 20260504230922 | 26 | 281 | 4.8 | 8.0 | 0.00 | 0.00 | 0.00 | 36 | 1009.4 |
| 20260504230822 | 26 | 359 | 0.0 | 1.6 | 0.00 | 0.00 | 0.00 | 35 | 1009.4 |
| 20260504230723 | 26 | 317 | 3.2 | 6.4 | 0.00 | 0.00 | 0.00 | 35 | 1009.4 |
| 20260504230622 | 26 | 238 | 4.8 | 6.4 | 0.00 | 0.00 | 0.00 | 35 | 1009.4 |
| 20260504230522 | 26 | 302 | 1.6 | 4.8 | 0.00 | 0.00 | 0.00 | 37 | 1009.5 |
| 20260504230422 | 26 | 299 | 1.6 | 4.8 | 0.00 | 0.00 | 0.00 | 36 | 1009.4 |
| 20260504230322 | 26 | 265 | 3.2 | 6.4 | 0.00 | 0.00 | 0.00 | 36 | 1009.5 |
| 20260504230222 | 26 | 233 | 4.8 | 9.7 | 0.00 | 0.00 | 0.00 | 36 | 1009.5 |
| 20260504230122 | 26 | 224 | 1.6 | 4.8 | 0.00 | 0.00 | 0.00 | 37 | 1009.5 |
| 20260504230022 | 26 | 284 | 3.2 | 4.8 | 0.00 | 0.00 | 0.00 | 36 | 1009.5 |
| 20260504225922 | 26 | 0 | 0.0 | 0.0 | 0.00 | 0.00 | 0.00 | 37 | 1009.5 |
| 20260504225822 | 26 | 73 | 1.6 | 3.2 | 0.00 | 0.00 | 0.00 | 36 | 1009.5 |
| 20260504225722 | 26 | 306 | 1.6 | 6.4 | 0.00 | 0.00 | 0.00 | 37 | 1009.6 |
| 20260504225222 | 25 | 0 | 3.2 | 6.4 | 0.00 | 0.00 | 0.00 | 38 | 1009.6 |
| 20260504225122 | 25 | 47 | 0.0 | 1.6 | 0.00 | 0.00 | 0.00 | 38 | 1009.6 |
| 20260504225022 | 25 | 0 | 0.0 | 1.6 | 0.00 | 0.00 | 0.00 | 37 | 1009.6 |
| 20260504224922 | 25 | 0 | 0.0 | 3.2 | 0.00 | 0.00 | 0.00 | 37 | 1009.6 |
| 20260504224823 | 25 | 260 | 1.6 | 3.2 | 0.00 | 0.00 | 0.00 | 36 | 1009.6 |
| 20260504224523 | 26 | 219 | 3.2 | 4.8 | 0.00 | 0.00 | 0.00 | 38 | 1009.7 |
| 20260504224423 | 26 | 220 | 4.8 | 8.0 | 0.00 | 0.00 | 0.00 | 38 | 1009.7 |
| 20260504224323 | 26 | 233 | 4.8 | 6.4 | 0.00 | 0.00 | 0.00 | 39 | 1009.7 |
| 20260504224223 | 26 | 238 | 4.8 | 8.0 | 0.00 | 0.00 | 0.00 | 39 | 1009.7 |
| 20260504224122 | 25 | 259 | 4.8 | 9.7 | 0.00 | 0.00 | 0.00 | 39 | 1009.8 |
| 20260504224023 | 25 | 257 | 3.2 | 4.8 | 0.00 | 0.00 | 0.00 | 39 | 1009.7 |
| 20260504223923 | 25 | 43 | 3.2 | 9.7 | 0.00 | 0.00 | 0.00 | 39 | 1009.7 |
| 20260504223823 | 25 | 352 | 0.0 | 3.2 | 0.00 | 0.00 | 0.00 | 40 | 1009.8 |
| 20260504223523 | 25 | 209 | 4.8 | 8.0 | 0.00 | 0.00 | 0.00 | 39 | 1009.7 |
| 20260504223423 | 25 | 223 | 3.2 | 6.4 | 0.00 | 0.00 | 0.00 | 39 | 1009.8 |
| 20260504223323 | 25 | 269 | 3.2 | 4.8 | 0.00 | 0.00 | 0.00 | 39 | 1009.8 |
| 20260504223223 | 25 | 225 | 3.2 | 6.4 | 0.00 | 0.00 | 0.00 | 39 | 1009.8 |
| 20260504223123 | 25 | 252 | 3.2 | 6.4 | 0.00 | 0.00 | 0.00 | 39 | 1009.8 |
| 20260504223023 | 25 | 271 | 3.2 | 8.0 | 0.00 | 0.00 | 0.00 | 39 | 1009.8 |
| 20260504222923 | 25 | 220 | 6.4 | 12.9 | 0.00 | 0.00 | 0.00 | 39 | 1009.8 |
| 20260504222823 | 25 | 226 | 3.2 | 8.0 | 0.00 | 0.00 | 0.00 | 40 | 1009.8 |
| 20260504222723 | 25 | 227 | 1.6 | 4.8 | 0.00 | 0.00 | 0.00 | 40 | 1009.8 |
| 20260504222622 | 25 | 0 | 1.6 | 4.8 | 0.00 | 0.00 | 0.00 | 40 | 1009.8 |
| 20260504222523 | 25 | 60 | 3.2 | 8.0 | 0.00 | 0.00 | 0.00 | 40 | 1009.8 |
| 20260504222423 | 25 | 263 | 4.8 | 8.0 | 0.00 | 0.00 | 0.00 | 40 | 1009.9 |
| 20260504222323 | 25 | 186 | 1.6 | 3.2 | 0.00 | 0.00 | 0.00 | 41 | 1009.8 |
| 20260504222023 | 25 | 224 | 8.0 | 11.3 | 0.00 | 0.00 | 0.00 | 41 | 1009.9 |
| 20260504221923 | 25 | 212 | 1.6 | 6.4 | 0.00 | 0.00 | 0.00 | 42 | 1009.9 |
| 20260504221823 | 25 | 276 | 0.0 | 3.2 | 0.00 | 0.00 | 0.00 | 41 | 1009.9 |
| 20260504221723 | 25 | 252 | 3.2 | 4.8 | 0.00 | 0.00 | 0.00 | 42 | 1009.9 |
| 20260504221623 | 25 | 231 | 0.0 | 3.2 | 0.00 | 0.00 | 0.00 | 42 | 1010.0 |
| 20260504221523 | 25 | 296 | 1.6 | 6.4 | 0.00 | 0.00 | 0.00 | 42 | 1010.0 |
| 20260504221423 | 25 | 238 | 0.0 | 3.2 | 0.00 | 0.00 | 0.00 | 42 | 1010.0 |
| 20260504221322 | 25 | 278 | 1.6 | 4.8 | 0.00 | 0.00 | 0.00 | 42 | 1010.0 |
| 20260504221223 | 25 | 0 | 1.6 | 3.2 | 0.00 | 0.00 | 0.00 | 42 | 1010.0 |
| 20260504221123 | 25 | 233 | 3.2 | 6.4 | 0.00 | 0.00 | 0.00 | 42 | 1010.0 |
| 20260504220923 | 25 | 0 | 1.6 | 4.8 | 0.00 | 0.00 | 0.00 | 42 | 1010.0 |
| 20260504220823 | 25 | 17 | 1.6 | 4.8 | 0.00 | 0.00 | 0.00 | 43 | 1010.0 |
| 20260504220723 | 25 | 300 | 1.6 | 3.2 | 0.00 | 0.00 | 0.00 | 44 | 1010.1 |
| 20260504220523 | 25 | 0 | 0.0 | 4.8 | 0.00 | 0.00 | 0.00 | 43 | 1010.0 |
| 20260504220423 | 25 | 278 | 1.6 | 4.8 | 0.00 | 0.00 | 0.00 | 43 | 1010.1 |
| 20260504220323 | 25 | 286 | 1.6 | 4.8 | 0.00 | 0.00 | 0.00 | 43 | 1010.1 |
| 20260504220123 | 25 | 268 | 1.6 | 4.8 | 0.00 | 0.00 | 0.00 | 43 | 1010.1 |
| 20260504220023 | 25 | 225 | 4.8 | 11.3 | 0.00 | 0.00 | 0.00 | 42 | 1010.0 |
| 20260504215923 | 25 | 53 | 3.2 | 8.0 | 0.00 | 0.00 | 0.00 | 42 | 1010.0 |
| 20260504215823 | 25 | 8 | 3.2 | 8.0 | 0.00 | 0.00 | 0.00 | 42 | 1010.1 |
| 20260504215723 | 25 | 229 | 3.2 | 6.4 | 0.00 | 0.00 | 0.00 | 44 | 1010.1 |
| 20260504215423 | 25 | 280 | 1.6 | 3.2 | 0.00 | 0.00 | 0.00 | 41 | 1010.0 |
| 20260504215324 | 25 | 226 | 1.6 | 4.8 | 0.00 | 0.00 | 0.00 | 41 | 1010.0 |
| 20260504215224 | 25 | 275 | 4.8 | 9.7 | 0.00 | 0.00 | 0.00 | 40 | 1010.0 |
| 20260504215123 | 25 | 217 | 8.0 | 9.7 | 0.00 | 0.00 | 0.00 | 40 | 1010.0 |
| 20260504214824 | 25 | 224 | 3.2 | 6.4 | 0.00 | 0.00 | 0.00 | 40 | 1010.1 |
| 20260504214724 | 25 | 209 | 4.8 | 8.0 | 0.00 | 0.00 | 0.00 | 41 | 1010.0 |
| 20260504214424 | 25 | 225 | 4.8 | 9.7 | 0.00 | 0.00 | 0.00 | 41 | 1010.1 |
| 20260504214324 | 25 | 236 | 4.8 | 11.3 | 0.00 | 0.00 | 0.00 | 40 | 1010.1 |
| 20260504214224 | 25 | 231 | 6.4 | 8.0 | 0.00 | 0.00 | 0.00 | 40 | 1010.1 |
| 20260504214124 | 25 | 220 | 3.2 | 8.0 | 0.00 | 0.00 | 0.00 | 40 | 1010.1 |
| 20260504214024 | 25 | 227 | 4.8 | 6.4 | 0.00 | 0.00 | 0.00 | 40 | 1010.1 |
| 20260504213924 | 25 | 237 | 3.2 | 8.0 | 0.00 | 0.00 | 0.00 | 40 | 1010.1 |
| 20260504213724 | 25 | 333 | 1.6 | 6.4 | 0.00 | 0.00 | 0.00 | 40 | 1010.0 |
| 20260504213524 | 25 | 211 | 3.2 | 9.7 | 0.00 | 0.00 | 0.00 | 41 | 1010.1 |
| 20260504213423 | 25 | 266 | 1.6 | 3.2 | 0.00 | 0.00 | 0.00 | 41 | 1010.1 |
| 20260504213323 | 25 | 254 | 6.4 | 11.3 | 0.00 | 0.00 | 0.00 | 40 | 1010.1 |
| 20260504213224 | 25 | 204 | 6.4 | 11.3 | 0.00 | 0.00 | 0.00 | 40 | 1010.1 |
| 20260504212924 | 25 | 239 | 1.6 | 3.2 | 0.00 | 0.00 | 0.00 | 40 | 1010.1 |
| 20260504212624 | 25 | 224 | 3.2 | 8.0 | 0.00 | 0.00 | 0.00 | 41 | 1010.1 |
| 20260504212524 | 25 | 226 | 4.8 | 9.7 | 0.00 | 0.00 | 0.00 | 40 | 1010.1 |
| 20260504212424 | 25 | 216 | 4.8 | 8.0 | 0.00 | 0.00 | 0.00 | 40 | 1010.1 |
| 20260504212324 | 25 | 222 | 4.8 | 6.4 | 0.00 | 0.00 | 0.00 | 41 | 1010.2 |
| 20260504212224 | 25 | 212 | 1.6 | 3.2 | 0.00 | 0.00 | 0.00 | 41 | 1010.2 |
| 20260504212124 | 25 | 245 | 4.8 | 9.7 | 0.00 | 0.00 | 0.00 | 40 | 1010.2 |
| 20260504212024 | 25 | 228 | 4.8 | 8.0 | 0.00 | 0.00 | 0.00 | 41 | 1010.1 |
| 20260504211924 | 25 | 285 | 1.6 | 6.4 | 0.00 | 0.00 | 0.00 | 40 | 1010.1 |
| 20260504211524 | 25 | 216 | 6.4 | 9.7 | 0.00 | 0.00 | 0.00 | 41 | 1010.1 |
| 20260504211424 | 25 | 232 | 4.8 | 8.0 | 0.00 | 0.00 | 0.00 | 41 | 1010.1 |
| 20260504211327 | 25 | 218 | 3.2 | 6.4 | 0.00 | 0.00 | 0.00 | 41 | 1010.1 |
| 20260504210924 | 25 | 224 | 6.4 | 9.7 | 0.00 | 0.00 | 0.00 | 41 | 1010.2 |
| 20260504210724 | 25 | 180 | 4.8 | 9.7 | 0.00 | 0.00 | 0.00 | 41 | 1010.2 |
| 20260504210624 | 25 | 201 | 6.4 | 9.7 | 0.00 | 0.00 | 0.00 | 41 | 1010.1 |
| 20260504210124 | 25 | 262 | 3.2 | 4.8 | 0.00 | 0.00 | 0.00 | 41 | 1010.2 |
| 20260504205824 | 25 | 204 | 6.4 | 9.7 | 0.00 | 0.00 | 0.00 | 41 | 1010.2 |
| 20260504205724 | 25 | 220 | 3.2 | 8.0 | 0.00 | 0.00 | 0.00 | 41 | 1010.2 |
| 20260504205625 | 25 | 216 | 4.8 | 9.7 | 0.00 | 0.00 | 0.00 | 41 | 1010.2 |
| 20260504205524 | 25 | 291 | 6.4 | 8.0 | 0.00 | 0.00 | 0.00 | 41 | 1010.2 |
| 20260504205424 | 25 | 261 | 3.2 | 4.8 | 0.00 | 0.00 | 0.00 | 41 | 1010.3 |
| 20260504205324 | 25 | 300 | 3.2 | 4.8 | 0.00 | 0.00 | 0.00 | 41 | 1010.3 |
| 20260504205224 | 25 | 14 | 1.6 | 3.2 | 0.00 | 0.00 | 0.00 | 42 | 1010.3 |
| 20260504205124 | 25 | 0 | 0.0 | 1.6 | 0.00 | 0.00 | 0.00 | 42 | 1010.3 |
| 20260504205024 | 24 | 236 | 3.2 | 4.8 | 0.00 | 0.00 | 0.00 | 42 | 1010.3 |
| 20260504204925 | 24 | 324 | 1.6 | 4.8 | 0.00 | 0.00 | 0.00 | 42 | 1010.3 |
| 20260504204824 | 24 | 288 | 1.6 | 4.8 | 0.00 | 0.00 | 0.00 | 42 | 1010.3 |
| 20260504204724 | 24 | 321 | 0.0 | 3.2 | 0.00 | 0.00 | 0.00 | 43 | 1010.3 |
| 20260504204624 | 24 | 0 | 1.6 | 3.2 | 0.00 | 0.00 | 0.00 | 43 | 1010.3 |
| 20260504204525 | 24 | 253 | 3.2 | 6.4 | 0.00 | 0.00 | 0.00 | 42 | 1010.3 |
| 20260504204424 | 24 | 205 | 4.8 | 8.0 | 0.00 | 0.00 | 0.00 | 42 | 1010.3 |
| 20260504204325 | 24 | 223 | 6.4 | 9.7 | 0.00 | 0.00 | 0.00 | 42 | 1010.3 |
| 20260504204225 | 24 | 210 | 6.4 | 11.3 | 0.00 | 0.00 | 0.00 | 42 | 1010.3 |
| 20260504204125 | 24 | 215 | 1.6 | 6.4 | 0.00 | 0.00 | 0.00 | 43 | 1010.3 |
| 20260504204024 | 24 | 263 | 1.6 | 4.8 | 0.00 | 0.00 | 0.00 | 43 | 1010.3 |
| 20260504203724 | 24 | 228 | 1.6 | 4.8 | 0.00 | 0.00 | 0.00 | 43 | 1010.3 |
| 20260504203625 | 24 | 218 | 4.8 | 8.0 | 0.00 | 0.00 | 0.00 | 43 | 1010.3 |
| 20260504203325 | 24 | 218 | 4.8 | 6.4 | 0.00 | 0.00 | 0.00 | 43 | 1010.3 |
| 20260504203225 | 24 | 246 | 4.8 | 11.3 | 0.00 | 0.00 | 0.00 | 43 | 1010.3 |
| 20260504203125 | 24 | 275 | 4.8 | 6.4 | 0.00 | 0.00 | 0.00 | 44 | 1010.3 |
| 20260504203024 | 24 | 269 | 1.6 | 4.8 | 0.00 | 0.00 | 0.00 | 45 | 1010.3 |
| 20260504202525 | 24 | 219 | 0.0 | 3.2 | 0.00 | 0.00 | 0.00 | 44 | 1010.3 |
| 20260504202424 | 24 | 292 | 3.2 | 6.4 | 0.00 | 0.00 | 0.00 | 44 | 1010.3 |
| 20260504202325 | 24 | 283 | 4.8 | 6.4 | 0.00 | 0.00 | 0.00 | 43 | 1010.3 |
| 20260504202225 | 24 | 274 | 4.8 | 8.0 | 0.00 | 0.00 | 0.00 | 43 | 1010.3 |
| 20260504201925 | 24 | 217 | 4.8 | 6.4 | 0.00 | 0.00 | 0.00 | 44 | 1010.2 |
| 20260504201825 | 24 | 223 | 3.2 | 4.8 | 0.00 | 0.00 | 0.00 | 44 | 1010.2 |
| 20260504201425 | 23 | 0 | 0.0 | 1.6 | 0.00 | 0.00 | 0.00 | 43 | 1010.3 |
| 20260504201325 | 23 | 321 | 1.6 | 3.2 | 0.00 | 0.00 | 0.00 | 43 | 1010.3 |
| 20260504201225 | 23 | 302 | 4.8 | 8.0 | 0.00 | 0.00 | 0.00 | 43 | 1010.3 |
| 20260504201125 | 23 | 257 | 4.8 | 11.3 | 0.00 | 0.00 | 0.00 | 43 | 1010.3 |
| 20260504201025 | 23 | 73 | 4.8 | 6.4 | 0.00 | 0.00 | 0.00 | 43 | 1010.3 |
| 20260504200725 | 23 | 221 | 4.8 | 8.0 | 0.00 | 0.00 | 0.00 | 42 | 1010.4 |
| 20260504200627 | 23 | 220 | 6.4 | 9.7 | 0.00 | 0.00 | 0.00 | 42 | 1010.4 |
| 20260504200526 | 23 | 211 | 8.0 | 12.9 | 0.00 | 0.00 | 0.00 | 42 | 1010.3 |
| 20260504200426 | 23 | 213 | 6.4 | 8.0 | 0.00 | 0.00 | 0.00 | 42 | 1010.3 |
| 20260504200325 | 23 | 220 | 3.2 | 11.3 | 0.00 | 0.00 | 0.00 | 42 | 1010.4 |
| 20260504200225 | 23 | 201 | 6.4 | 11.3 | 0.00 | 0.00 | 0.00 | 43 | 1010.4 |
| 20260504200125 | 23 | 210 | 4.8 | 8.0 | 0.00 | 0.00 | 0.00 | 42 | 1010.4 |
| 20260504195825 | 23 | 205 | 4.8 | 8.0 | 0.00 | 0.00 | 0.00 | 43 | 1010.5 |
| 20260504195725 | 23 | 208 | 3.2 | 8.0 | 0.00 | 0.00 | 0.00 | 43 | 1010.5 |
| 20260504195625 | 23 | 245 | 4.8 | 8.0 | 0.00 | 0.00 | 0.00 | 43 | 1010.5 |
| 20260504195425 | 23 | 0 | 1.6 | 6.4 | 0.00 | 0.00 | 0.00 | 42 | 1010.5 |
| 20260504195326 | 23 | 224 | 4.8 | 8.0 | 0.00 | 0.00 | 0.00 | 42 | 1010.5 |
| 20260504195225 | 23 | 228 | 1.6 | 4.8 | 0.00 | 0.00 | 0.00 | 43 | 1010.5 |
| 20260504195125 | 23 | 0 | 0.0 | 3.2 | 0.00 | 0.00 | 0.00 | 44 | 1010.5 |
| 20260504195025 | 23 | 0 | 1.6 | 6.4 | 0.00 | 0.00 | 0.00 | 43 | 1010.5 |
| 20260504194925 | 23 | 220 | 3.2 | 6.4 | 0.00 | 0.00 | 0.00 | 43 | 1010.5 |
| 20260504194825 | 23 | 0 | 1.6 | 6.4 | 0.00 | 0.00 | 0.00 | 43 | 1010.5 |
| 20260504194725 | 23 | 207 | 1.6 | 6.4 | 0.00 | 0.00 | 0.00 | 43 | 1010.5 |
| 20260504194225 | 23 | 215 | 1.6 | 3.2 | 0.00 | 0.00 | 0.00 | 43 | 1010.5 |
| 20260504194126 | 23 | 297 | 3.2 | 4.8 | 0.00 | 0.00 | 0.00 | 44 | 1010.6 |
| 20260504194025 | 23 | 230 | 4.8 | 9.7 | 0.00 | 0.00 | 0.00 | 44 | 1010.6 |
| 20260504193926 | 23 | 270 | 6.4 | 11.3 | 0.00 | 0.00 | 0.00 | 43 | 1010.6 |
| 20260504193726 | 23 | 273 | 1.6 | 6.4 | 0.00 | 0.00 | 0.00 | 44 | 1010.6 |
| 20260504193625 | 23 | 302 | 1.6 | 3.2 | 0.00 | 0.00 | 0.00 | 43 | 1010.6 |
| 20260504193526 | 23 | 341 | 1.6 | 6.4 | 0.00 | 0.00 | 0.00 | 44 | 1010.6 |
| 20260504193425 | 23 | 281 | 0.0 | 1.6 | 0.00 | 0.00 | 0.00 | 43 | 1010.6 |
| 20260504193325 | 23 | 0 | 1.6 | 3.2 | 0.00 | 0.00 | 0.00 | 44 | 1010.6 |
| 20260504193228 | 23 | 332 | 0.0 | 3.2 | 0.00 | 0.00 | 0.00 | 44 | 1010.6 |
| 20260504193125 | 23 | 77 | 4.8 | 11.3 | 0.00 | 0.00 | 0.00 | 45 | 1010.6 |
| 20260504193026 | 23 | 77 | 4.8 | 9.7 | 0.00 | 0.00 | 0.00 | 44 | 1010.6 |
| 20260504192926 | 23 | 113 | 0.0 | 4.8 | 0.00 | 0.00 | 0.00 | 44 | 1010.6 |
| 20260504192825 | 23 | 0 | 0.0 | 3.2 | 0.00 | 0.00 | 0.00 | 44 | 1010.6 |
| 20260504192726 | 23 | 259 | 1.6 | 3.2 | 0.00 | 0.00 | 0.00 | 44 | 1010.7 |
| 20260504192426 | 23 | 322 | 1.6 | 4.8 | 0.00 | 0.00 | 0.00 | 44 | 1010.7 |
| 20260504192326 | 23 | 275 | 1.6 | 3.2 | 0.00 | 0.00 | 0.00 | 44 | 1010.7 |
| 20260504192225 | 23 | 232 | 1.6 | 4.8 | 0.00 | 0.00 | 0.00 | 44 | 1010.7 |
| 20260504192126 | 23 | 285 | 0.0 | 4.8 | 0.00 | 0.00 | 0.00 | 44 | 1010.7 |
| 20260504192025 | 23 | 236 | 3.2 | 4.8 | 0.00 | 0.00 | 0.00 | 44 | 1010.7 |
| 20260504191926 | 23 | 310 | 3.2 | 4.8 | 0.00 | 0.00 | 0.00 | 44 | 1010.7 |
| 20260504191826 | 23 | 274 | 4.8 | 8.0 | 0.00 | 0.00 | 0.00 | 44 | 1010.7 |
| 20260504191726 | 23 | 217 | 6.4 | 9.7 | 0.00 | 0.00 | 0.00 | 44 | 1010.7 |
| 20260504191626 | 23 | 0 | 3.2 | 6.4 | 0.00 | 0.00 | 0.00 | 44 | 1010.7 |
| 20260504191526 | 23 | 220 | 0.0 | 6.4 | 0.00 | 0.00 | 0.00 | 44 | 1010.7 |
| 20260504191426 | 23 | 217 | 0.0 | 3.2 | 0.00 | 0.00 | 0.00 | 44 | 1010.7 |
| 20260504191326 | 23 | 223 | 3.2 | 8.0 | 0.00 | 0.00 | 0.00 | 44 | 1010.7 |
| 20260504191226 | 23 | 0 | 0.0 | 0.0 | 0.00 | 0.00 | 0.00 | 45 | 1010.7 |
| 20260504191126 | 23 | 0 | 1.6 | 6.4 | 0.00 | 0.00 | 0.00 | 45 | 1010.7 |
| 20260504191025 | 23 | 0 | 1.6 | 4.8 | 0.00 | 0.00 | 0.00 | 45 | 1010.7 |
| 20260504190926 | 23 | 219 | 4.8 | 8.0 | 0.00 | 0.00 | 0.00 | 44 | 1010.7 |
| 20260504190526 | 23 | 32 | 3.2 | 9.7 | 0.00 | 0.00 | 0.00 | 44 | 1010.7 |
| 20260504190426 | 23 | 0 | 0.0 | 3.2 | 0.00 | 0.00 | 0.00 | 44 | 1010.7 |
| 20260504190126 | 23 | 0 | 0.0 | 3.2 | 0.00 | 0.00 | 0.00 | 44 | 1010.7 |
| 20260504190026 | 22 | 80 | 4.8 | 9.7 | 0.00 | 0.00 | 0.00 | 44 | 1010.7 |
| 20260504185926 | 22 | 113 | 1.6 | 6.4 | 0.00 | 0.00 | 0.00 | 44 | 1010.7 |
| 20260504185826 | 22 | 36 | 3.2 | 4.8 | 0.00 | 0.00 | 0.00 | 44 | 1010.7 |
| 20260504185727 | 22 | 330 | 3.2 | 6.4 | 0.00 | 0.00 | 0.00 | 44 | 1010.8 |
| 20260504185626 | 22 | 0 | 1.6 | 4.8 | 0.00 | 0.00 | 0.00 | 44 | 1010.8 |
| 20260504185526 | 22 | 241 | 3.2 | 6.4 | 0.00 | 0.00 | 0.00 | 44 | 1010.8 |
| 20260504185326 | 22 | 0 | 0.0 | 1.6 | 0.00 | 0.00 | 0.00 | 43 | 1010.8 |
| 20260504185228 | 22 | 0 | 1.6 | 6.4 | 0.00 | 0.00 | 0.00 | 43 | 1010.8 |
| 20260504185127 | 22 | 253 | 1.6 | 4.8 | 0.00 | 0.00 | 0.00 | 43 | 1010.8 |
| 20260504184826 | 22 | 261 | 3.2 | 6.4 | 0.00 | 0.00 | 0.00 | 44 | 1010.8 |
| 20260504184727 | 22 | 208 | 6.4 | 8.0 | 0.00 | 0.00 | 0.00 | 44 | 1010.8 |
| 20260504184627 | 22 | 201 | 3.2 | 8.0 | 0.00 | 0.00 | 0.00 | 45 | 1010.8 |
| 20260504184526 | 22 | 219 | 3.2 | 8.0 | 0.00 | 0.00 | 0.00 | 45 | 1010.8 |
| 20260504184427 | 22 | 212 | 6.4 | 9.7 | 0.00 | 0.00 | 0.00 | 45 | 1010.8 |
| 20260504184327 | 22 | 209 | 6.4 | 9.7 | 0.00 | 0.00 | 0.00 | 44 | 1010.8 |
| 20260504184227 | 22 | 217 | 3.2 | 6.4 | 0.00 | 0.00 | 0.00 | 45 | 1010.8 |
| 20260504183927 | 22 | 0 | 0.0 | 0.0 | 0.00 | 0.00 | 0.00 | 46 | 1010.9 |
| 20260504183826 | 22 | 0 | 0.0 | 1.6 | 0.00 | 0.00 | 0.00 | 46 | 1010.9 |
| 20260504183727 | 22 | 288 | 1.6 | 3.2 | 0.00 | 0.00 | 0.00 | 46 | 1010.9 |
| 20260504183627 | 22 | 5 | 1.6 | 3.2 | 0.00 | 0.00 | 0.00 | 46 | 1010.9 |
| 20260504183327 | 22 | 225 | 3.2 | 6.4 | 0.00 | 0.00 | 0.00 | 44 | 1010.9 |
| 20260504183227 | 22 | 215 | 4.8 | 4.8 | 0.00 | 0.00 | 0.00 | 43 | 1011.0 |
| 20260504183126 | 22 | 217 | 4.8 | 6.4 | 0.00 | 0.00 | 0.00 | 43 | 1011.0 |
| 20260504183027 | 22 | 209 | 3.2 | 4.8 | 0.00 | 0.00 | 0.00 | 44 | 1011.0 |
| 20260504182927 | 22 | 0 | 1.6 | 4.8 | 0.00 | 0.00 | 0.00 | 45 | 1011.0 |
| 20260504182827 | 22 | 293 | 1.6 | 6.4 | 0.00 | 0.00 | 0.00 | 45 | 1011.0 |
| 20260504182726 | 22 | 0 | 1.6 | 4.8 | 0.00 | 0.00 | 0.00 | 45 | 1011.0 |
| 20260504182627 | 22 | 225 | 6.4 | 8.0 | 0.00 | 0.00 | 0.00 | 45 | 1011.0 |
| 20260504182527 | 22 | 217 | 6.4 | 9.7 | 0.00 | 0.00 | 0.00 | 45 | 1011.0 |
| 20260504182427 | 22 | 212 | 3.2 | 6.4 | 0.00 | 0.00 | 0.00 | 45 | 1011.0 |
| 20260504182327 | 22 | 210 | 3.2 | 6.4 | 0.00 | 0.00 | 0.00 | 44 | 1011.0 |
| 20260504182227 | 22 | 250 | 6.4 | 11.3 | 0.00 | 0.00 | 0.00 | 44 | 1011.0 |
| 20260504182127 | 22 | 203 | 3.2 | 8.0 | 0.00 | 0.00 | 0.00 | 44 | 1011.0 |
| 20260504182027 | 22 | 212 | 3.2 | 6.4 | 0.00 | 0.00 | 0.00 | 44 | 1011.0 |
| 20260504181927 | 22 | 220 | 1.6 | 3.2 | 0.00 | 0.00 | 0.00 | 44 | 1011.0 |
| 20260504181826 | 22 | 290 | 3.2 | 4.8 | 0.00 | 0.00 | 0.00 | 44 | 1011.0 |
| 20260504181727 | 22 | 243 | 1.6 | 4.8 | 0.00 | 0.00 | 0.00 | 45 | 1011.0 |
| 20260504181627 | 22 | 0 | 0.0 | 3.2 | 0.00 | 0.00 | 0.00 | 46 | 1011.0 |
| 20260504181527 | 21 | 328 | 1.6 | 3.2 | 0.00 | 0.00 | 0.00 | 47 | 1011.1 |
| 20260504181427 | 21 | 294 | 3.2 | 4.8 | 0.00 | 0.00 | 0.00 | 48 | 1011.1 |
| 20260504181128 | 21 | 219 | 4.8 | 6.4 | 0.00 | 0.00 | 0.00 | 48 | 1011.1 |
| 20260504181027 | 21 | 199 | 4.8 | 6.4 | 0.00 | 0.00 | 0.00 | 48 | 1011.1 |
| 20260504180927 | 21 | 235 | 4.8 | 8.0 | 0.00 | 0.00 | 0.00 | 48 | 1011.1 |
| 20260504180827 | 21 | 215 | 1.6 | 6.4 | 0.00 | 0.00 | 0.00 | 48 | 1011.1 |
| 20260504180728 | 21 | 317 | 4.8 | 8.0 | 0.00 | 0.00 | 0.00 | 47 | 1011.1 |
| 20260504180627 | 21 | 209 | 3.2 | 8.0 | 0.00 | 0.00 | 0.00 | 49 | 1011.1 |
| 20260504180127 | 21 | 0 | 1.6 | 4.8 | 0.00 | 0.00 | 0.00 | 49 | 1011.0 |
| 20260504175827 | 21 | 221 | 3.2 | 6.4 | 0.00 | 0.00 | 0.00 | 50 | 1011.0 |
| 20260504175728 | 21 | 202 | 6.4 | 8.0 | 0.00 | 0.00 | 0.00 | 49 | 1011.0 |
| 20260504175628 | 21 | 194 | 4.8 | 6.4 | 0.00 | 0.00 | 0.00 | 48 | 1011.0 |
| 20260504175528 | 21 | 225 | 1.6 | 3.2 | 0.00 | 0.00 | 0.00 | 47 | 1011.0 |
| 20260504175427 | 21 | 211 | 3.2 | 6.4 | 0.00 | 0.00 | 0.00 | 48 | 1011.0 |
| 20260504175328 | 21 | 223 | 3.2 | 4.8 | 0.00 | 0.00 | 0.00 | 48 | 1011.0 |
| 20260504175228 | 21 | 210 | 4.8 | 8.0 | 0.00 | 0.00 | 0.00 | 48 | 1011.0 |
| 20260504175130 | 21 | 207 | 3.2 | 8.0 | 0.00 | 0.00 | 0.00 | 49 | 1011.0 |
| 20260504175029 | 21 | 260 | 1.6 | 3.2 | 0.00 | 0.00 | 0.00 | 48 | 1011.0 |
| 20260504174827 | 21 | 205 | 3.2 | 6.4 | 0.00 | 0.00 | 0.00 | 49 | 1011.0 |
| 20260504174727 | 21 | 0 | 0.0 | 3.2 | 0.00 | 0.00 | 0.00 | 50 | 1011.0 |
| 20260504174627 | 21 | 269 | 1.6 | 4.8 | 0.00 | 0.00 | 0.00 | 50 | 1011.0 |
| 20260504174527 | 21 | 274 | 1.6 | 3.2 | 0.00 | 0.00 | 0.00 | 49 | 1011.0 |
| 20260504174428 | 21 | 223 | 4.8 | 6.4 | 0.00 | 0.00 | 0.00 | 49 | 1011.0 |
| 20260504174328 | 21 | 207 | 3.2 | 6.4 | 0.00 | 0.00 | 0.00 | 49 | 1011.0 |
| 20260504174228 | 21 | 215 | 1.6 | 3.2 | 0.00 | 0.00 | 0.00 | 49 | 1011.0 |
| 20260504173928 | 21 | 218 | 1.6 | 4.8 | 0.00 | 0.00 | 0.00 | 48 | 1011.0 |
| 20260504173828 | 21 | 276 | 1.6 | 3.2 | 0.00 | 0.00 | 0.00 | 48 | 1011.0 |
| 20260504173727 | 21 | 254 | 3.2 | 3.2 | 0.00 | 0.00 | 0.00 | 48 | 1011.0 |
| 20260504173628 | 21 | 223 | 3.2 | 6.4 | 0.00 | 0.00 | 0.00 | 48 | 1011.0 |
| 20260504173528 | 21 | 208 | 4.8 | 6.4 | 0.00 | 0.00 | 0.00 | 47 | 1011.0 |
| 20260504173428 | 21 | 212 | 6.4 | 9.7 | 0.00 | 0.00 | 0.00 | 47 | 1011.0 |
| 20260504173227 | 21 | 270 | 3.2 | 6.4 | 0.00 | 0.00 | 0.00 | 46 | 1011.0 |
| 20260504173128 | 21 | 207 | 3.2 | 6.4 | 0.00 | 0.00 | 0.00 | 47 | 1011.0 |
| 20260504172828 | 21 | 215 | 1.6 | 3.2 | 0.00 | 0.00 | 0.00 | 47 | 1011.0 |
| 20260504172728 | 21 | 214 | 1.6 | 4.8 | 0.00 | 0.00 | 0.00 | 47 | 1011.0 |
| 20260504172527 | 20 | 115 | 1.6 | 6.4 | 0.00 | 0.00 | 0.00 | 49 | 1011.0 |
| 20260504172428 | 20 | 64 | 3.2 | 8.0 | 0.00 | 0.00 | 0.00 | 49 | 1011.0 |
| 20260504172328 | 20 | 0 | 0.0 | 1.6 | 0.00 | 0.00 | 0.00 | 47 | 1011.0 |
| 20260504172227 | 20 | 208 | 1.6 | 4.8 | 0.00 | 0.00 | 0.00 | 47 | 1011.0 |
| 20260504172128 | 20 | 218 | 3.2 | 4.8 | 0.00 | 0.00 | 0.00 | 47 | 1011.0 |
| 20260504172028 | 20 | 203 | 1.6 | 4.8 | 0.00 | 0.00 | 0.00 | 47 | 1011.0 |
| 20260504171728 | 20 | 214 | 4.8 | 6.4 | 0.00 | 0.00 | 0.00 | 47 | 1011.0 |
| 20260504171430 | 20 | 205 | 1.6 | 3.2 | 0.00 | 0.00 | 0.00 | 47 | 1011.0 |
| 20260504171128 | 20 | 220 | 3.2 | 6.4 | 0.00 | 0.00 | 0.00 | 47 | 1011.0 |
| 20260504171028 | 20 | 0 | 0.0 | 1.6 | 0.00 | 0.00 | 0.00 | 48 | 1011.0 |
| 20260504170928 | 20 | 209 | 1.6 | 3.2 | 0.00 | 0.00 | 0.00 | 47 | 1011.0 |
| 20260504170828 | 20 | 0 | 0.0 | 0.0 | 0.00 | 0.00 | 0.00 | 48 | 1011.0 |
| 20260504170528 | 20 | 0 | 1.6 | 3.2 | 0.00 | 0.00 | 0.00 | 48 | 1011.0 |
| 20260504170428 | 20 | 212 | 3.2 | 4.8 | 0.00 | 0.00 | 0.00 | 48 | 1011.0 |
| 20260504170328 | 20 | 212 | 4.8 | 6.4 | 0.00 | 0.00 | 0.00 | 47 | 1011.0 |
| 20260504170228 | 20 | 206 | 3.2 | 3.2 | 0.00 | 0.00 | 0.00 | 48 | 1011.0 |
| 20260504170128 | 20 | 213 | 0.0 | 1.6 | 0.00 | 0.00 | 0.00 | 48 | 1011.0 |
| 20260504160429 | 19 | 222 | 3.2 | 4.8 | 0.00 | 0.00 | 0.00 | 49 | 1010.8 |
| 20260504160329 | 19 | 210 | 1.6 | 4.8 | 0.00 | 0.00 | 0.00 | 51 | 1010.8 |
| 20260504160230 | 19 | 0 | 0.0 | 1.6 | 0.00 | 0.00 | 0.00 | 51 | 1010.8 |
| 20260504160129 | 19 | 253 | 1.6 | 1.6 | 0.00 | 0.00 | 0.00 | 51 | 1010.8 |
| 20260504151130 | 17 | 0 | 0.0 | 3.2 | 0.00 | 0.00 | 0.00 | 58 | 1010.6 |
| 20260504150830 | 17 | 48 | 0.0 | 3.2 | 0.00 | 0.00 | 0.00 | 59 | 1010.6 |
| 20260504150730 | 17 | 63 | 0.0 | 3.2 | 0.00 | 0.00 | 0.00 | 59 | 1010.6 |
| 20260504150631 | 17 | 93 | 0.0 | 1.6 | 0.00 | 0.00 | 0.00 | 59 | 1010.6 |
| 20260504150530 | 17 | 93 | 0.0 | 1.6 | 0.00 | 0.00 | 0.00 | 59 | 1010.6 |
| 20260504150430 | 17 | 110 | 0.0 | 3.2 | 0.00 | 0.00 | 0.00 | 58 | 1010.6 |
| 20260504150330 | 17 | 58 | 1.6 | 3.2 | 0.00 | 0.00 | 0.00 | 59 | 1010.6 |
| 20260504150230 | 17 | 0 | 0.0 | 1.6 | 0.00 | 0.00 | 0.00 | 60 | 1010.6 |
| 20260504150130 | 17 | 0 | 0.0 | 3.2 | 0.00 | 0.00 | 0.00 | 60 | 1010.6 |
| 20260504141331 | 11 | 0 | 0.0 | 0.0 | 0.00 | 0.00 | 0.00 | 87 | 1010.2 |
| 20260504141231 | 11 | 0 | 0.0 | 0.0 | 0.00 | 0.00 | 0.00 | 87 | 1010.2 |
| 20260504141131 | 11 | 0 | 0.0 | 0.0 | 0.00 | 0.00 | 0.00 | 87 | 1010.2 |
| 20260504141031 | 10 | 0 | 0.0 | 0.0 | 0.00 | 0.00 | 0.00 | 87 | 1010.1 |
| 20260504140731 | 10 | 0 | 0.0 | 0.0 | 0.00 | 0.00 | 0.00 | 88 | 1010.1 |
| 20260504140631 | 10 | 0 | 0.0 | 0.0 | 0.00 | 0.00 | 0.00 | 88 | 1010.1 |
| 20260504140331 | 10 | 0 | 0.0 | 0.0 | 0.00 | 0.00 | 0.00 | 87 | 1010.1 |
| 20260504140231 | 10 | 0 | 0.0 | 0.0 | 0.00 | 0.00 | 0.00 | 87 | 1010.1 |
| 20260504130732 | 11 | 0 | 0.0 | 0.0 | 0.00 | 0.00 | 0.00 | 80 | 1009.5 |
| 20260504130632 | 11 | 0 | 0.0 | 0.0 | 0.00 | 0.00 | 0.00 | 79 | 1009.5 |
| 20260504130332 | 11 | 0 | 0.0 | 0.0 | 0.00 | 0.00 | 0.00 | 78 | 1009.5 |
| 20260504120233 | 11 | 0 | 0.0 | 1.6 | 0.00 | 0.00 | 0.00 | 78 | 1009.5 |
| 20260504110234 | 11 | 0 | 0.0 | 0.0 | 0.00 | 0.00 | 0.00 | 80 | 1009.5 |
| 20260504110134 | 11 | 0 | 0.0 | 0.0 | 0.00 | 0.00 | 0.00 | 79 | 1009.5 |
| 20260504100535 | 12 | 131 | 0.0 | 3.2 | 0.00 | 0.00 | 0.00 | 75 | 1009.4 |
| 20260504100335 | 12 | 129 | 1.6 | 1.6 | 0.00 | 0.00 | 0.00 | 75 | 1009.4 |
| 20260504100235 | 12 | 118 | 0.0 | 3.2 | 0.00 | 0.00 | 0.00 | 75 | 1009.4 |
| 20260504100135 | 12 | 99 | 0.0 | 1.6 | 0.00 | 0.00 | 0.00 | 75 | 1009.4 |
| 20260504081937 | 13 | 0 | 1.6 | 3.2 | 0.00 | 0.00 | 0.00 | 77 | 1009.4 |
| 20260504081837 | 13 | 97 | 1.6 | 3.2 | 0.00 | 0.00 | 0.00 | 77 | 1009.4 |
| 20260504081737 | 13 | 139 | 3.2 | 4.8 | 0.00 | 0.00 | 0.00 | 77 | 1009.4 |
| 20260504081637 | 13 | 140 | 3.2 | 4.8 | 0.00 | 0.00 | 0.00 | 78 | 1009.4 |
| 20260504081337 | 13 | 130 | 1.6 | 4.8 | 0.00 | 0.00 | 0.00 | 79 | 1009.5 |
| 20260504081237 | 13 | 86 | 0.0 | 3.2 | 0.00 | 0.00 | 0.00 | 79 | 1009.5 |
| 20260504081137 | 13 | 61 | 0.0 | 1.6 | 0.00 | 0.00 | 0.00 | 79 | 1009.5 |
| 20260504081037 | 13 | 0 | 0.0 | 0.0 | 0.00 | 0.00 | 0.00 | 79 | 1009.5 |
| 20260504080937 | 13 | 0 | 0.0 | 0.0 | 0.00 | 0.00 | 0.00 | 79 | 1009.5 |
| 20260504080837 | 13 | 0 | 0.0 | 0.0 | 0.00 | 0.00 | 0.00 | 78 | 1009.6 |
| 20260504080737 | 13 | 0 | 0.0 | 0.0 | 0.00 | 0.00 | 0.00 | 78 | 1009.6 |
| 20260504080637 | 13 | 0 | 0.0 | 0.0 | 0.00 | 0.00 | 0.00 | 78 | 1009.6 |
| 20260504080537 | 13 | 0 | 0.0 | 0.0 | 0.00 | 0.00 | 0.00 | 79 | 1009.6 |
| 20260504080437 | 13 | 0 | 0.0 | 0.0 | 0.00 | 0.00 | 0.00 | 79 | 1009.5 |
| 20260504080137 | 14 | 0 | 0.0 | 0.0 | 0.00 | 0.00 | 0.00 | 78 | 1009.5 |
| 20260504070138 | 14 | 0 | 0.0 | 0.0 | 0.00 | 0.00 | 0.00 | 81 | 1009.5 |
| 20260504060239 | 16 | 0 | 0.0 | 0.0 | 0.00 | 0.00 | 0.00 | 76 | 1009.5 |
| 20260504060139 | 16 | 0 | 0.0 | 0.0 | 0.00 | 0.00 | 0.00 | 76 | 1009.5 |
| 20260504050740 | 17 | 0 | 0.0 | 0.0 | 0.00 | 0.00 | 0.00 | 73 | 1009.4 |
| 20260504050640 | 17 | 57 | 0.0 | 1.6 | 0.00 | 0.00 | 0.00 | 73 | 1009.4 |
| 20260504050340 | 17 | 0 | 0.0 | 0.0 | 0.00 | 0.00 | 0.00 | 73 | 1009.4 |
| 20260504050240 | 17 | 0 | 0.0 | 0.0 | 0.00 | 0.00 | 0.00 | 73 | 1009.4 |
| 20260504050140 | 17 | 0 | 0.0 | 0.0 | 0.00 | 0.00 | 0.00 | 73 | 1009.4 |
| 20260504045940 | 17 | 0 | 0.0 | 0.0 | 0.00 | 0.00 | 0.00 | 72 | 1009.4 |
| 20260504045841 | 17 | 0 | 0.0 | 0.0 | 0.00 | 0.00 | 0.00 | 72 | 1009.4 |
| 20260504045742 | 17 | 0 | 0.0 | 0.0 | 0.00 | 0.00 | 0.00 | 72 | 1009.4 |
| 20260504045241 | 18 | 0 | 0.0 | 0.0 | 0.00 | 0.00 | 0.00 | 72 | 1009.4 |
| 20260504045140 | 18 | 0 | 0.0 | 0.0 | 0.00 | 0.00 | 0.00 | 72 | 1009.4 |
| 20260504044841 | 18 | 0 | 0.0 | 0.0 | 0.00 | 0.00 | 0.00 | 71 | 1009.4 |
| 20260504044741 | 18 | 0 | 0.0 | 0.0 | 0.00 | 0.00 | 0.00 | 71 | 1009.4 |
| 20260504044641 | 18 | 0 | 0.0 | 0.0 | 0.00 | 0.00 | 0.00 | 71 | 1009.4 |
| 20260504044541 | 18 | 0 | 0.0 | 0.0 | 0.00 | 0.00 | 0.00 | 71 | 1009.4 |
| 20260504044441 | 18 | 0 | 0.0 | 0.0 | 0.00 | 0.00 | 0.00 | 71 | 1009.4 |
| 20260504044341 | 18 | 0 | 0.0 | 0.0 | 0.00 | 0.00 | 0.00 | 70 | 1009.4 |
| 20260504044241 | 18 | 0 | 0.0 | 0.0 | 0.00 | 0.00 | 0.00 | 70 | 1009.4 |
| 20260504044141 | 18 | 0 | 0.0 | 0.0 | 0.00 | 0.00 | 0.00 | 70 | 1009.4 |
| 20260504044041 | 18 | 0 | 0.0 | 0.0 | 0.00 | 0.00 | 0.00 | 70 | 1009.4 |
| 20260504043741 | 18 | 0 | 0.0 | 0.0 | 0.00 | 0.00 | 0.00 | 70 | 1009.4 |
| 20260504043641 | 18 | 0 | 0.0 | 0.0 | 0.00 | 0.00 | 0.00 | 69 | 1009.4 |
| 20260504043541 | 18 | 0 | 0.0 | 0.0 | 0.00 | 0.00 | 0.00 | 69 | 1009.3 |
| 20260504043441 | 18 | 0 | 0.0 | 0.0 | 0.00 | 0.00 | 0.00 | 69 | 1009.3 |
| 20260504043341 | 18 | 0 | 0.0 | 0.0 | 0.00 | 0.00 | 0.00 | 69 | 1009.3 |
| 20260504043241 | 18 | 0 | 0.0 | 0.0 | 0.00 | 0.00 | 0.00 | 69 | 1009.3 |
| 20260504043141 | 19 | 0 | 0.0 | 0.0 | 0.00 | 0.00 | 0.00 | 69 | 1009.3 |
| 20260504043041 | 19 | 0 | 0.0 | 0.0 | 0.00 | 0.00 | 0.00 | 69 | 1009.3 |
| 20260504042941 | 19 | 0 | 0.0 | 0.0 | 0.00 | 0.00 | 0.00 | 69 | 1009.2 |
| 20260504042841 | 19 | 0 | 0.0 | 0.0 | 0.00 | 0.00 | 0.00 | 68 | 1009.2 |
| 20260504042741 | 19 | 0 | 0.0 | 0.0 | 0.00 | 0.00 | 0.00 | 68 | 1009.2 |
| 20260504042641 | 19 | 0 | 0.0 | 0.0 | 0.00 | 0.00 | 0.00 | 68 | 1009.2 |
| 20260504042541 | 19 | 0 | 0.0 | 0.0 | 0.00 | 0.00 | 0.00 | 68 | 1009.2 |
| 20260504042441 | 19 | 0 | 0.0 | 0.0 | 0.00 | 0.00 | 0.00 | 68 | 1009.2 |
| 20260504042341 | 19 | 0 | 0.0 | 0.0 | 0.00 | 0.00 | 0.00 | 68 | 1009.2 |
| 20260504042041 | 20 | 0 | 0.0 | 0.0 | 0.00 | 0.00 | 0.00 | 67 | 1009.2 |
| 20260504041941 | 20 | 0 | 0.0 | 0.0 | 0.00 | 0.00 | 0.00 | 67 | 1009.1 |
| 20260504041841 | 20 | 0 | 0.0 | 0.0 | 0.00 | 0.00 | 0.00 | 67 | 1009.2 |
| 20260504041541 | 20 | 0 | 0.0 | 0.0 | 0.00 | 0.00 | 0.00 | 66 | 1009.2 |
| 20260504041441 | 20 | 0 | 0.0 | 0.0 | 0.00 | 0.00 | 0.00 | 66 | 1009.1 |
| 20260504041341 | 20 | 0 | 0.0 | 0.0 | 0.00 | 0.00 | 0.00 | 65 | 1009.1 |
| 20260504041241 | 20 | 0 | 0.0 | 0.0 | 0.00 | 0.00 | 0.00 | 65 | 1009.1 |
| 20260504041141 | 20 | 0 | 0.0 | 0.0 | 0.00 | 0.00 | 0.00 | 65 | 1009.1 |
| 20260504041041 | 20 | 0 | 0.0 | 0.0 | 0.00 | 0.00 | 0.00 | 65 | 1009.1 |
| 20260504040741 | 20 | 0 | 0.0 | 0.0 | 0.00 | 0.00 | 0.00 | 64 | 1009.1 |
| 20260504040641 | 20 | 0 | 0.0 | 0.0 | 0.00 | 0.00 | 0.00 | 64 | 1009.1 |
| 20260504040141 | 21 | 0 | 0.0 | 0.0 | 0.00 | 0.00 | 0.00 | 62 | 1009.1 |
| 20260504035641 | 21 | 0 | 0.0 | 0.0 | 0.00 | 0.00 | 0.00 | 62 | 1009.1 |